User: anonymous   Login
Location: Nebula Knoll Observatory
(43.6666°N, 71.0000°W)
Time: 06:16:23
(UTC-04:00)
Language:

SeaSat 1 - Orbit

View from above orbital plane
View from above orbital plane
View from above satellite
View from above satellite

Ground track
Ground track

The orbit data is extracted from the following two-line orbital elements,

1 10967U 78064A   16147.87486682 -.00000022  00000-0  33831-4 0  9993
2 10967 107.9993 212.3665 0002319 236.0770 124.0154 14.43549596990856
Epoch (UTC): 26 May 2016 20:59:48
Eccentricity: 0.0002319
inclination: 107.9993°
perigee height: 745 km
apogee height: 748 km
right ascension of ascending node: 212.3665°
argument of perigee: 236.0770°
revolutions per day: 14.43549596
mean anomaly at epoch: 124.0154°
orbit number at epoch: 99085

The dashed part of the orbit path shows where the satellite is in the earth's shadow,  

DLR